| time (UTC) | temp F | wind direction | speed MPH | gust MPH | rain 1hr in | rain 24hr in | rain mn in | humidity % | barometer mb |
| 20260905161101 | 56 | 344 | 5.0 | 0.0 | 0.00 | 0.00 | 0.00 | 63 | 1010.5 |
| 20260905160501 | 56 | 5 | 3.0 | 0.0 | 0.00 | 0.00 | 0.00 | 62 | 1010.4 |
| 20260905160026 | 55 | 340 | 4.0 | 0.0 | 0.00 | 0.00 | 0.00 | 62 | 1010.4 |
| 20260905155533 | 55 | 325 | 4.0 | 0.0 | 0.00 | 0.00 | 0.00 | 62 | 1010.4 |
| 20260905155038 | 55 | 320 | 4.0 | 0.0 | 0.00 | 0.00 | 0.00 | 63 | 1010.3 |
| 20260905154600 | 55 | 355 | 5.0 | 0.0 | 0.00 | 0.00 | 0.00 | 63 | 1010.3 |
| 20260905154054 | 55 | 343 | 4.0 | 0.0 | 0.00 | 0.00 | 0.00 | 64 | 1010.4 |
| 20260905153506 | 54 | 355 | 4.0 | 0.0 | 0.00 | 0.00 | 0.00 | 65 | 1010.4 |
| 20260905153027 | 54 | 346 | 4.0 | 0.0 | 0.00 | 0.00 | 0.00 | 65 | 1010.4 |
| 20260905152537 | 54 | 360 | 5.0 | 0.0 | 0.00 | 0.00 | 0.00 | 65 | 1010.4 |
| 20260905152043 | 54 | 360 | 4.0 | 0.0 | 0.00 | 0.00 | 0.00 | 64 | 1010.3 |
| 20260905151552 | 54 | 333 | 4.0 | 0.0 | 0.00 | 0.00 | 0.00 | 65 | 1010.5 |
| 20260905151008 | 54 | 346 | 4.0 | 0.0 | 0.00 | 0.00 | 0.00 | 65 | 1010.4 |
| 20260905150519 | 54 | 325 | 3.0 | 0.0 | 0.00 | 0.00 | 0.00 | 65 | 1010.4 |
| 20260905150035 | 54 | 43 | 3.0 | 0.0 | 0.00 | 0.00 | 0.00 | 66 | 1010.4 |
| 20260905145542 | 54 | 20 | 3.0 | 0.0 | 0.00 | 0.00 | 0.00 | 66 | 1010.4 |
| 20260905145052 | 53 | 69 | 2.0 | 0.0 | 0.00 | 0.00 | 0.00 | 67 | 1010.4 |
| 20260905144603 | 53 | 80 | 2.0 | 0.0 | 0.00 | 0.00 | 0.00 | 67 | 1010.5 |
| 20260905144005 | 53 | 80 | 2.0 | 0.0 | 0.00 | 0.00 | 0.00 | 69 | 1010.5 |
| 20260905143513 | 52 | 105 | 2.0 | 0.0 | 0.00 | 0.00 | 0.00 | 70 | 1010.6 |
| 20260905143035 | 52 | 105 | 2.0 | 0.0 | 0.00 | 0.00 | 0.00 | 71 | 1010.5 |
| 20260905142542 | 52 | 196 | 1.0 | 0.0 | 0.00 | 0.00 | 0.00 | 71 | 1010.5 |
| 20260905142054 | 51 | 207 | 1.0 | 0.0 | 0.00 | 0.00 | 0.00 | 74 | 1010.4 |
| 20260905141607 | 50 | 207 | 1.0 | 0.0 | 0.00 | 0.00 | 0.00 | 76 | 1010.3 |
| 20260905141009 | 49 | 207 | 1.0 | 0.0 | 0.00 | 0.00 | 0.00 | 78 | 1010.2 |
| 20260905140517 | 48 | 201 | 2.0 | 0.0 | 0.00 | 0.00 | 0.00 | 79 | 1010.3 |
| 20260905140021 | 47 | 201 | 3.0 | 0.0 | 0.00 | 0.00 | 0.00 | 80 | 1010.2 |
| 20260905135532 | 47 | 201 | 3.0 | 0.0 | 0.00 | 0.00 | 0.00 | 82 | 1010.2 |
| 20260905135042 | 46 | 201 | 4.0 | 0.0 | 0.00 | 0.00 | 0.00 | 83 | 1010.0 |
| 20260905134554 | 45 | 201 | 4.0 | 0.0 | 0.00 | 0.00 | 0.00 | 83 | 1009.9 |
| 20260905134014 | 45 | 201 | 4.0 | 0.0 | 0.00 | 0.00 | 0.00 | 83 | 1009.9 |
| 20260905133523 | 44 | 201 | 5.0 | 0.0 | 0.00 | 0.00 | 0.00 | 82 | 1009.8 |
| 20260905133029 | 44 | 201 | 5.0 | 0.0 | 0.00 | 0.00 | 0.00 | 84 | 1009.7 |
| 20260905132541 | 44 | 196 | 5.0 | 0.0 | 0.00 | 0.00 | 0.00 | 84 | 1009.3 |
| 20260905132056 | 43 | 195 | 4.0 | 0.0 | 0.00 | 0.00 | 0.00 | 84 | 1009.2 |
| 20260905131605 | 43 | 196 | 4.0 | 0.0 | 0.00 | 0.00 | 0.00 | 84 | 1009.1 |
| 20260905131022 | 43 | 195 | 2.0 | 0.0 | 0.00 | 0.00 | 0.00 | 83 | 1008.9 |
| 20260905130534 | 43 | 195 | 2.0 | 0.0 | 0.00 | 0.00 | 0.00 | 81 | 1008.9 |
| 20260905130042 | 43 | 195 | 2.0 | 0.0 | 0.00 | 0.00 | 0.00 | 81 | 1008.7 |
| 20260905125553 | 44 | 195 | 3.0 | 0.0 | 0.00 | 0.00 | 0.00 | 80 | 1008.7 |
| 20260905125015 | 45 | 195 | 4.0 | 0.0 | 0.00 | 0.00 | 0.00 | 80 | 1008.8 |
| 20260905124532 | 45 | 196 | 4.0 | 0.0 | 0.00 | 0.00 | 0.00 | 80 | 1008.7 |
| 20260905124040 | 45 | 195 | 4.0 | 0.0 | 0.00 | 0.00 | 0.00 | 80 | 1008.6 |
| 20260905123551 | 46 | 195 | 4.0 | 0.0 | 0.00 | 0.00 | 0.00 | 79 | 1008.6 |
| 20260905123105 | 46 | 195 | 3.0 | 0.0 | 0.00 | 0.00 | 0.00 | 80 | 1008.6 |
| 20260905122522 | 46 | 195 | 3.0 | 0.0 | 0.00 | 0.00 | 0.00 | 81 | 1008.5 |
| 20260905122042 | 45 | 196 | 3.0 | 0.0 | 0.00 | 0.00 | 0.00 | 82 | 1008.4 |
| 20260905121555 | 45 | 195 | 3.0 | 0.0 | 0.00 | 0.00 | 0.00 | 82 | 1008.3 |
| 20260905121003 | 44 | 195 | 3.0 | 0.0 | 0.00 | 0.00 | 0.00 | 81 | 1008.3 |
| 20260905120527 | 44 | 105 | 2.0 | 0.0 | 0.00 | 0.00 | 0.00 | 81 | 1008.3 |
| 20260905120046 | 44 | 105 | 2.0 | 0.0 | 0.00 | 0.00 | 0.00 | 80 | 1008.3 |
| 20260905115603 | 45 | 105 | 2.0 | 0.0 | 0.00 | 0.00 | 0.00 | 80 | 1008.2 |
| 20260905115012 | 45 | 105 | 3.0 | 0.0 | 0.00 | 0.00 | 0.00 | 80 | 1008.2 |
| 20260905114532 | 45 | 105 | 4.0 | 0.0 | 0.00 | 0.00 | 0.00 | 80 | 1008.2 |
| 20260905114041 | 45 | 105 | 4.0 | 0.0 | 0.00 | 0.00 | 0.00 | 79 | 1008.1 |
| 20260905113549 | 45 | 105 | 5.0 | 0.0 | 0.00 | 0.00 | 0.00 | 79 | 1008.1 |
| 20260905113120 | 46 | 105 | 5.0 | 0.0 | 0.00 | 0.00 | 0.00 | 79 | 1008.1 |
| 20260905112506 | 46 | 105 | 4.0 | 0.0 | 0.00 | 0.00 | 0.00 | 80 | 1008.0 |
| 20260905112015 | 46 | 9 | 3.0 | 0.0 | 0.00 | 0.00 | 0.00 | 79 | 1008.0 |
| 20260905111534 | 46 | 342 | 3.0 | 0.0 | 0.00 | 0.00 | 0.00 | 78 | 1007.9 |
| 20260905111046 | 46 | 342 | 4.0 | 0.0 | 0.00 | 0.00 | 0.00 | 78 | 1007.8 |
| 20260905110600 | 46 | 342 | 5.0 | 0.0 | 0.00 | 0.00 | 0.00 | 79 | 1007.9 |
| 20260905110018 | 46 | 342 | 5.0 | 0.0 | 0.00 | 0.00 | 0.00 | 78 | 1007.8 |
| 20260905105535 | 46 | 342 | 4.0 | 0.0 | 0.00 | 0.00 | 0.00 | 78 | 1007.7 |
| 20260905105054 | 46 | 342 | 3.0 | 0.0 | 0.00 | 0.00 | 0.00 | 76 | 1007.7 |
| 20260905104603 | 47 | 342 | 3.0 | 0.0 | 0.00 | 0.00 | 0.00 | 75 | 1007.6 |
| 20260905104017 | 47 | 342 | 4.0 | 0.0 | 0.00 | 0.00 | 0.00 | 74 | 1007.5 |
| 20260905103535 | 48 | 342 | 3.0 | 0.0 | 0.00 | 0.00 | 0.00 | 71 | 1007.4 |
| 20260905103049 | 49 | 342 | 2.0 | 0.0 | 0.00 | 0.00 | 0.00 | 71 | 1007.5 |
| 20260905102557 | 50 | 342 | 1.0 | 0.0 | 0.00 | 0.00 | 0.00 | 70 | 1007.5 |
| 20260905102012 | 51 | 342 | 1.0 | 0.0 | 0.00 | 0.00 | 0.00 | 71 | 1007.4 |
| 20260905101524 | 51 | 342 | 1.0 | 0.0 | 0.00 | 0.00 | 0.00 | 70 | 1007.4 |
| 20260905101039 | 51 | 342 | 2.0 | 0.0 | 0.00 | 0.00 | 0.00 | 70 | 1007.4 |
| 20260905100552 | 51 | 342 | 2.0 | 0.0 | 0.00 | 0.00 | 0.00 | 69 | 1007.3 |
| 20260905100108 | 52 | 342 | 2.0 | 0.0 | 0.00 | 0.00 | 0.00 | 69 | 1007.3 |
| 20260905095516 | 52 | 342 | 3.0 | 0.0 | 0.00 | 0.00 | 0.00 | 69 | 1007.1 |
| 20260905095032 | 52 | 342 | 3.0 | 0.0 | 0.00 | 0.00 | 0.00 | 68 | 1007.1 |
| 20260905094543 | 52 | 342 | 2.0 | 0.0 | 0.00 | 0.00 | 0.00 | 68 | 1007.0 |
| 20260905094059 | 52 | 342 | 2.0 | 0.0 | 0.00 | 0.00 | 0.00 | 68 | 1007.0 |
| 20260905093507 | 52 | 342 | 4.0 | 0.0 | 0.00 | 0.00 | 0.00 | 67 | 1006.9 |
| 20260905093017 | 53 | 342 | 5.0 | 0.0 | 0.00 | 0.00 | 0.00 | 67 | 1006.9 |
| 20260905092539 | 53 | 342 | 6.0 | 0.0 | 0.00 | 0.00 | 0.00 | 67 | 1006.7 |
| 20260905092053 | 53 | 340 | 7.0 | 0.0 | 0.00 | 0.00 | 0.00 | 66 | 1006.7 |
| 20260905091513 | 54 | 329 | 8.0 | 0.0 | 0.00 | 0.00 | 0.00 | 66 | 1006.7 |
| 20260905091027 | 54 | 327 | 6.0 | 0.0 | 0.00 | 0.00 | 0.00 | 65 | 1006.7 |
| 20260905090536 | 54 | 329 | 5.0 | 0.0 | 0.00 | 0.00 | 0.00 | 65 | 1006.5 |
| 20260905090048 | 54 | 319 | 6.0 | 0.0 | 0.00 | 0.00 | 0.00 | 64 | 1006.5 |
| 20260905085504 | 54 | 320 | 5.0 | 0.0 | 0.00 | 0.00 | 0.00 | 63 | 1006.4 |
| 20260905085105 | 54 | 323 | 6.0 | 0.0 | 0.00 | 0.00 | 0.00 | 63 | 1006.3 |
| 20260905084601 | 54 | 321 | 5.0 | 0.0 | 0.00 | 0.00 | 0.00 | 63 | 1006.2 |
| 20260905084002 | 54 | 322 | 3.0 | 0.0 | 0.00 | 0.00 | 0.00 | 63 | 1006.2 |
| 20260905083602 | 53 | 13 | 2.0 | 0.0 | 0.00 | 0.00 | 0.00 | 63 | 1006.1 |
| 20260905083110 | 53 | 53 | 3.0 | 0.0 | 0.00 | 0.00 | 0.00 | 63 | 1006.2 |
| 20260905082603 | 54 | 27 | 5.0 | 0.0 | 0.00 | 0.00 | 0.00 | 63 | 1006.0 |
| 20260905082003 | 54 | 28 | 7.0 | 0.0 | 0.00 | 0.00 | 0.00 | 62 | 1005.7 |
| 20260905081605 | 54 | 36 | 6.0 | 0.0 | 0.00 | 0.00 | 0.00 | 62 | 1005.9 |
| 20260905081001 | 54 | 60 | 5.0 | 0.0 | 0.00 | 0.00 | 0.00 | 60 | 1006.3 |
| 20260905080557 | 54 | 44 | 6.0 | 0.0 | 0.00 | 0.00 | 0.00 | 60 | 1006.1 |
| 20260905080053 | 53 | 82 | 6.0 | 0.0 | 0.00 | 0.00 | 0.00 | 59 | 1006.1 |
| 20260905075554 | 53 | 47 | 5.0 | 0.0 | 0.00 | 0.00 | 0.00 | 57 | 1005.6 |
| 20260905075054 | 53 | 63 | 3.0 | 0.0 | 0.00 | 0.00 | 0.00 | 58 | 1005.7 |
| 20260905074549 | 52 | 42 | 2.0 | 0.0 | 0.00 | 0.00 | 0.00 | 57 | 1005.9 |
| 20260905074050 | 52 | 42 | 2.0 | 0.0 | 0.00 | 0.00 | 0.00 | 57 | 1005.5 |
| 20260905073550 | 52 | 42 | 2.0 | 0.0 | 0.00 | 0.00 | 0.00 | 56 | 1005.4 |
| 20260905073043 | 52 | 42 | 3.0 | 0.0 | 0.00 | 0.00 | 0.00 | 56 | 1005.2 |
| 20260905072543 | 52 | 34 | 4.0 | 0.0 | 0.00 | 0.00 | 0.00 | 56 | 1004.9 |
| 20260905072051 | 52 | 55 | 4.0 | 0.0 | 0.00 | 0.00 | 0.00 | 57 | 1005.0 |
| 20260905071551 | 52 | 84 | 5.0 | 0.0 | 0.00 | 0.00 | 0.00 | 55 | 1005.0 |
| 20260905071052 | 53 | 355 | 4.0 | 0.0 | 0.00 | 0.00 | 0.00 | 54 | 1004.9 |
| 20260905070558 | 53 | 355 | 6.0 | 0.0 | 0.00 | 0.00 | 0.00 | 54 | 1004.7 |
| 20260905070059 | 53 | 355 | 7.0 | 0.0 | 0.00 | 0.00 | 0.00 | 53 | 1004.7 |
| 20260905065603 | 53 | 323 | 6.0 | 0.0 | 0.00 | 0.00 | 0.00 | 55 | 1004.8 |
| 20260905065002 | 53 | 308 | 5.0 | 0.0 | 0.00 | 0.00 | 0.00 | 56 | 1004.4 |
| 20260905064607 | 52 | 259 | 5.0 | 0.0 | 0.00 | 0.00 | 0.00 | 56 | 1004.1 |
| 20260905064104 | 53 | 286 | 3.0 | 0.0 | 0.00 | 0.00 | 0.00 | 56 | 1004.1 |
| 20260905063553 | 53 | 286 | 3.0 | 0.0 | 0.00 | 0.00 | 0.00 | 53 | 1003.9 |
| 20260905063056 | 53 | 286 | 3.0 | 0.0 | 0.00 | 0.00 | 0.00 | 53 | 1003.7 |
| 20260905062549 | 53 | 286 | 4.0 | 0.0 | 0.00 | 0.00 | 0.00 | 54 | 1003.6 |
| 20260905062050 | 54 | 286 | 4.0 | 0.0 | 0.00 | 0.00 | 0.00 | 53 | 1003.7 |
| 20260905061607 | 54 | 339 | 4.0 | 0.0 | 0.00 | 0.00 | 0.00 | 52 | 1003.8 |
| 20260905061004 | 54 | 339 | 3.0 | 0.0 | 0.00 | 0.00 | 0.00 | 52 | 1003.8 |
| 20260905060609 | 55 | 339 | 3.0 | 0.0 | 0.00 | 0.00 | 0.00 | 52 | 1003.8 |
| 20260905060101 | 55 | 227 | 2.0 | 0.0 | 0.00 | 0.00 | 0.00 | 49 | 1003.7 |
| 20260905055557 | 55 | 202 | 3.0 | 0.0 | 0.00 | 0.00 | 0.00 | 49 | 1003.9 |
| 20260905055104 | 56 | 203 | 5.0 | 0.0 | 0.00 | 0.00 | 0.00 | 48 | 1003.7 |
| 20260905054557 | 57 | 196 | 6.0 | 0.0 | 0.00 | 0.00 | 0.00 | 46 | 1003.7 |
| 20260905054105 | 57 | 155 | 6.0 | 0.0 | 0.00 | 0.00 | 0.00 | 46 | 1003.6 |
| 20260905053502 | 57 | 133 | 6.0 | 0.0 | 0.00 | 0.00 | 0.00 | 46 | 1003.5 |
| 20260905053002 | 57 | 152 | 6.0 | 0.0 | 0.00 | 0.00 | 0.00 | 46 | 1003.7 |
| 20260905052602 | 57 | 143 | 7.0 | 0.0 | 0.00 | 0.00 | 0.00 | 45 | 1003.8 |
| 20260905052011 | 57 | 157 | 7.0 | 0.0 | 0.00 | 0.00 | 0.00 | 45 | 1003.7 |
| 20260905051510 | 57 | 145 | 7.0 | 0.0 | 0.00 | 0.00 | 0.00 | 45 | 1003.8 |
| 20260905051011 | 57 | 165 | 7.0 | 0.0 | 0.00 | 0.00 | 0.00 | 45 | 1003.8 |
| 20260905050525 | 58 | 148 | 8.0 | 0.0 | 0.00 | 0.00 | 0.00 | 44 | 1003.8 |
| 20260905050032 | 59 | 168 | 8.0 | 0.0 | 0.00 | 0.00 | 0.00 | 43 | 1004.0 |
| 20260905045530 | 59 | 169 | 8.0 | 0.0 | 0.00 | 0.00 | 0.00 | 42 | 1004.1 |
| 20260905045037 | 60 | 191 | 9.0 | 0.0 | 0.00 | 0.00 | 0.00 | 42 | 1004.2 |
| 20260905044531 | 59 | 175 | 9.0 | 0.0 | 0.00 | 0.00 | 0.00 | 42 | 1004.3 |
| 20260905044037 | 59 | 181 | 9.0 | 0.0 | 0.00 | 0.00 | 0.00 | 42 | 1004.6 |
| 20260905043532 | 59 | 159 | 8.0 | 0.0 | 0.00 | 0.00 | 0.00 | 42 | 1004.4 |
| 20260905043049 | 60 | 163 | 9.0 | 0.0 | 0.00 | 0.00 | 0.00 | 42 | 1004.5 |
| 20260905042530 | 59 | 159 | 10.0 | 0.0 | 0.00 | 0.00 | 0.00 | 42 | 1004.6 |
| 20260905042039 | 59 | 188 | 9.0 | 0.0 | 0.00 | 0.00 | 0.00 | 42 | 1004.8 |
| 20260905041538 | 59 | 193 | 9.0 | 0.0 | 0.00 | 0.00 | 0.00 | 42 | 1004.8 |
| 20260905041036 | 59 | 182 | 9.0 | 0.0 | 0.00 | 0.00 | 0.00 | 42 | 1004.8 |
| 20260905040542 | 59 | 170 | 9.0 | 0.0 | 0.00 | 0.00 | 0.00 | 42 | 1004.8 |
| 20260905040055 | 59 | 180 | 9.0 | 0.0 | 0.00 | 0.00 | 0.00 | 42 | 1004.9 |
| 20260905035549 | 59 | 190 | 7.0 | 0.0 | 0.00 | 0.00 | 0.00 | 42 | 1005.0 |
| 20260905035047 | 59 | 198 | 7.0 | 0.0 | 0.00 | 0.00 | 0.00 | 42 | 1005.0 |
| 20260905034604 | 60 | 199 | 8.0 | 0.0 | 0.00 | 0.00 | 0.00 | 41 | 1005.0 |
| 20260905034006 | 60 | 175 | 8.0 | 0.0 | 0.00 | 0.00 | 0.00 | 41 | 1005.2 |
| 20260905033514 | 60 | 186 | 8.0 | 0.0 | 0.00 | 0.00 | 0.00 | 41 | 1005.2 |
| 20260905033030 | 59 | 192 | 8.0 | 0.0 | 0.00 | 0.00 | 0.00 | 42 | 1005.1 |
| 20260905032532 | 58 | 159 | 7.0 | 0.0 | 0.00 | 0.00 | 0.00 | 43 | 1005.2 |
| 20260905032031 | 58 | 176 | 6.0 | 0.0 | 0.00 | 0.00 | 0.00 | 43 | 1005.2 |
| 20260905031535 | 57 | 177 | 5.0 | 0.0 | 0.00 | 0.00 | 0.00 | 43 | 1005.2 |
| 20260905031039 | 57 | 183 | 5.0 | 0.0 | 0.00 | 0.00 | 0.00 | 43 | 1005.0 |
| 20260905030554 | 57 | 188 | 5.0 | 0.0 | 0.00 | 0.00 | 0.00 | 43 | 1005.1 |
| 20260905030006 | 57 | 194 | 5.0 | 0.0 | 0.00 | 0.00 | 0.00 | 43 | 1005.2 |
| 20260905025502 | 57 | 192 | 4.0 | 0.0 | 0.00 | 0.00 | 0.00 | 42 | 1005.1 |
| 20260905025002 | 57 | 179 | 4.0 | 0.0 | 0.00 | 0.00 | 0.00 | 42 | 1005.1 |
| 20260905024606 | 58 | 178 | 4.0 | 0.0 | 0.00 | 0.00 | 0.00 | 42 | 1005.0 |
| 20260905024002 | 59 | 190 | 4.0 | 0.0 | 0.00 | 0.00 | 0.00 | 40 | 1004.9 |
| 20260905023605 | 59 | 198 | 5.0 | 0.0 | 0.00 | 0.00 | 0.00 | 40 | 1004.9 |
| 20260905023104 | 60 | 195 | 5.0 | 0.0 | 0.00 | 0.00 | 0.00 | 39 | 1004.8 |
| 20260905022601 | 60 | 188 | 6.0 | 0.0 | 0.00 | 0.00 | 0.00 | 39 | 1004.8 |
| 20260905022011 | 60 | 192 | 5.0 | 0.0 | 0.00 | 0.00 | 0.00 | 39 | 1004.7 |
| 20260905021527 | 60 | 196 | 5.0 | 0.0 | 0.00 | 0.00 | 0.00 | 38 | 1004.7 |
| 20260905021027 | 62 | 176 | 4.0 | 0.0 | 0.00 | 0.00 | 0.00 | 36 | 1004.6 |
| 20260905020537 | 63 | 142 | 3.0 | 0.0 | 0.00 | 0.00 | 0.00 | 35 | 1004.6 |
| 20260905020103 | 64 | 176 | 4.0 | 0.0 | 0.00 | 0.00 | 0.00 | 33 | 1004.5 |
| 20260905015549 | 65 | 176 | 5.0 | 0.0 | 0.00 | 0.00 | 0.00 | 33 | 1004.4 |
| 20260905015050 | 66 | 171 | 5.0 | 0.0 | 0.00 | 0.00 | 0.00 | 32 | 1004.3 |
| 20260905014600 | 67 | 163 | 6.0 | 0.0 | 0.00 | 0.00 | 0.00 | 31 | 1004.4 |
| 20260905014057 | 68 | 168 | 7.0 | 0.0 | 0.00 | 0.00 | 0.00 | 30 | 1004.3 |
| 20260905013558 | 69 | 173 | 8.0 | 0.0 | 0.00 | 0.00 | 0.00 | 29 | 1004.4 |
| 20260905013109 | 69 | 175 | 8.0 | 0.0 | 0.00 | 0.00 | 0.00 | 29 | 1004.2 |
| 20260905012556 | 70 | 169 | 7.0 | 0.0 | 0.00 | 0.00 | 0.00 | 28 | 1004.2 |
| 20260905012102 | 70 | 178 | 8.0 | 0.0 | 0.00 | 0.00 | 0.00 | 28 | 1004.2 |
| 20260905011628 | 71 | 157 | 8.0 | 0.0 | 0.00 | 0.00 | 0.00 | 28 | 1004.1 |
| 20260905011052 | 71 | 192 | 8.0 | 0.0 | 0.00 | 0.00 | 0.00 | 27 | 1004.0 |
| 20260905010506 | 71 | 170 | 10.0 | 0.0 | 0.00 | 0.00 | 0.00 | 27 | 1004.0 |
| 20260905010001 | 72 | 188 | 10.0 | 0.0 | 0.00 | 0.00 | 0.00 | 26 | 1004.0 |
| 20260905005503 | 72 | 192 | 10.0 | 0.0 | 0.00 | 0.00 | 0.00 | 26 | 1004.0 |
| 20260905005105 | 72 | 195 | 10.0 | 0.0 | 0.00 | 0.00 | 0.00 | 26 | 1003.9 |
| 20260905004600 | 72 | 169 | 12.0 | 0.0 | 0.00 | 0.00 | 0.00 | 26 | 1003.9 |
| 20260905004102 | 72 | 161 | 12.0 | 0.0 | 0.00 | 0.00 | 0.00 | 26 | 1003.8 |
| 20260905003501 | 72 | 161 | 11.0 | 0.0 | 0.00 | 0.00 | 0.00 | 26 | 1003.8 |
| 20260905003010 | 73 | 167 | 12.0 | 0.0 | 0.00 | 0.00 | 0.00 | 25 | 1003.7 |
| 20260905002513 | 73 | 171 | 12.0 | 0.0 | 0.00 | 0.00 | 0.00 | 25 | 1003.8 |
| 20260905002022 | 73 | 189 | 12.0 | 0.0 | 0.00 | 0.00 | 0.00 | 25 | 1003.8 |
| 20260905001547 | 73 | 142 | 13.0 | 0.0 | 0.00 | 0.00 | 0.00 | 25 | 1003.7 |
| 20260905001040 | 73 | 195 | 14.0 | 0.0 | 0.00 | 0.00 | 0.00 | 24 | 1003.7 |
| 20260905000544 | 73 | 140 | 13.0 | 0.0 | 0.00 | 0.00 | 0.00 | 24 | 1003.6 |
| 20260905000050 | 73 | 137 | 13.0 | 0.0 | 0.00 | 0.00 | 0.00 | 24 | 1003.6 |
| 20260904235504 | 73 | 115 | 13.0 | 0.0 | 0.00 | 0.00 | 0.00 | 24 | 1003.6 |
| 20260904235059 | 74 | 161 | 13.0 | 0.0 | 0.00 | 0.00 | 0.00 | 24 | 1003.6 |
| 20260904234555 | 74 | 227 | 12.0 | 0.0 | 0.00 | 0.00 | 0.00 | 24 | 1003.6 |
| 20260904234052 | 74 | 182 | 12.0 | 0.0 | 0.00 | 0.00 | 0.00 | 24 | 1003.6 |
| 20260904233557 | 73 | 173 | 13.0 | 0.0 | 0.00 | 0.00 | 0.00 | 24 | 1003.5 |
| 20260904233105 | 73 | 177 | 13.0 | 0.0 | 0.00 | 0.00 | 0.00 | 24 | 1003.6 |
| 20260904232503 | 73 | 173 | 12.0 | 0.0 | 0.00 | 0.00 | 0.00 | 24 | 1003.6 |
| 20260904232012 | 73 | 184 | 13.0 | 0.0 | 0.00 | 0.00 | 0.00 | 24 | 1003.7 |
| 20260904231521 | 74 | 193 | 14.0 | 0.0 | 0.00 | 0.00 | 0.00 | 23 | 1003.6 |
| 20260904231030 | 74 | 229 | 15.0 | 0.0 | 0.00 | 0.00 | 0.00 | 23 | 1003.6 |
| 20260904230534 | 74 | 194 | 16.0 | 0.0 | 0.00 | 0.00 | 0.00 | 24 | 1003.7 |
| 20260904230039 | 74 | 167 | 16.0 | 0.0 | 0.00 | 0.00 | 0.00 | 24 | 1003.6 |
| 20260904225554 | 74 | 182 | 17.0 | 0.0 | 0.00 | 0.00 | 0.00 | 24 | 1003.6 |
| 20260904225003 | 74 | 187 | 17.0 | 0.0 | 0.00 | 0.00 | 0.00 | 23 | 1003.6 |
| 20260904224523 | 74 | 196 | 16.0 | 0.0 | 0.00 | 0.00 | 0.00 | 24 | 1003.7 |
| 20260904224042 | 74 | 209 | 16.0 | 0.0 | 0.00 | 0.00 | 0.00 | 23 | 1003.7 |
| 20260904223551 | 73 | 171 | 17.0 | 0.0 | 0.00 | 0.00 | 0.00 | 24 | 1003.7 |
| 20260904223100 | 73 | 190 | 18.0 | 0.0 | 0.00 | 0.00 | 0.00 | 23 | 1003.8 |
| 20260904222514 | 73 | 168 | 17.0 | 0.0 | 0.00 | 0.00 | 0.00 | 24 | 1003.6 |
| 20260904222032 | 73 | 190 | 19.0 | 0.0 | 0.00 | 0.00 | 0.00 | 24 | 1003.7 |
| 20260904221540 | 73 | 163 | 21.0 | 0.0 | 0.00 | 0.00 | 0.00 | 24 | 1003.7 |
| 20260904221058 | 73 | 165 | 21.0 | 0.0 | 0.00 | 0.00 | 0.00 | 24 | 1003.7 |
| 20260904220515 | 74 | 148 | 18.0 | 0.0 | 0.00 | 0.00 | 0.00 | 24 | 1003.7 |
| 20260904220031 | 73 | 117 | 17.0 | 0.0 | 0.00 | 0.00 | 0.00 | 25 | 1003.6 |
| 20260904215551 | 73 | 211 | 17.0 | 0.0 | 0.00 | 0.00 | 0.00 | 25 | 1003.5 |
| 20260904215105 | 74 | 172 | 18.0 | 0.0 | 0.00 | 0.00 | 0.00 | 24 | 1003.6 |
| 20260904214508 | 73 | 148 | 18.0 | 0.0 | 0.00 | 0.00 | 0.00 | 24 | 1003.6 |
| 20260904214017 | 74 | 188 | 18.0 | 0.0 | 0.00 | 0.00 | 0.00 | 25 | 1003.6 |
| 20260904213539 | 73 | 178 | 21.0 | 0.0 | 0.00 | 0.00 | 0.00 | 25 | 1003.6 |
| 20260904213054 | 73 | 145 | 21.0 | 0.0 | 0.00 | 0.00 | 0.00 | 25 | 1003.6 |
| 20260904212545 | 74 | 154 | 20.0 | 0.0 | 0.00 | 0.00 | 0.00 | 24 | 1003.6 |
| 20260904212038 | 74 | 155 | 19.0 | 0.0 | 0.00 | 0.00 | 0.00 | 25 | 1003.7 |
| 20260904211549 | 73 | 178 | 19.0 | 0.0 | 0.00 | 0.00 | 0.00 | 25 | 1003.6 |
| 20260904211052 | 74 | 178 | 20.0 | 0.0 | 0.00 | 0.00 | 0.00 | 25 | 1003.5 |
| 20260904210603 | 74 | 129 | 20.0 | 0.0 | 0.00 | 0.00 | 0.00 | 25 | 1003.4 |
| 20260904210015 | 72 | 169 | 19.0 | 0.0 | 0.00 | 0.00 | 0.00 | 27 | 1003.4 |
| 20260904205532 | 73 | 169 | 19.0 | 0.0 | 0.00 | 0.00 | 0.00 | 26 | 1003.5 |
| 20260904205033 | 71 | 159 | 18.0 | 0.0 | 0.00 | 0.00 | 0.00 | 28 | 1003.4 |
| 20260904204541 | 72 | 174 | 17.0 | 0.0 | 0.00 | 0.00 | 0.00 | 27 | 1003.5 |
| 20260904204048 | 73 | 173 | 17.0 | 0.0 | 0.00 | 0.00 | 0.00 | 27 | 1003.5 |
| 20260904203549 | 72 | 175 | 17.0 | 0.0 | 0.00 | 0.00 | 0.00 | 28 | 1003.5 |
| 20260904203054 | 72 | 192 | 17.0 | 0.0 | 0.00 | 0.00 | 0.00 | 27 | 1003.5 |
| 20260904202555 | 73 | 181 | 19.0 | 0.0 | 0.00 | 0.00 | 0.00 | 27 | 1003.6 |
| 20260904202053 | 72 | 163 | 20.0 | 0.0 | 0.00 | 0.00 | 0.00 | 27 | 1003.6 |
| 20260904201603 | 72 | 152 | 19.0 | 0.0 | 0.00 | 0.00 | 0.00 | 27 | 1003.5 |
| 20260904201107 | 73 | 180 | 20.0 | 0.0 | 0.00 | 0.00 | 0.00 | 26 | 1003.4 |
| 20260904200514 | 72 | 181 | 19.0 | 0.0 | 0.00 | 0.00 | 0.00 | 27 | 1003.4 |
| 20260904200023 | 73 | 135 | 19.0 | 0.0 | 0.00 | 0.00 | 0.00 | 26 | 1003.6 |
| 20260904195526 | 73 | 162 | 19.0 | 0.0 | 0.00 | 0.00 | 0.00 | 27 | 1003.4 |
| 20260904195035 | 72 | 184 | 20.0 | 0.0 | 0.00 | 0.00 | 0.00 | 27 | 1003.4 |
| 20260904194605 | 72 | 189 | 18.0 | 0.0 | 0.00 | 0.00 | 0.00 | 27 | 1003.5 |
| 20260904194058 | 72 | 169 | 17.0 | 0.0 | 0.00 | 0.00 | 0.00 | 27 | 1003.5 |
| 20260904193600 | 72 | 128 | 17.0 | 0.0 | 0.00 | 0.00 | 0.00 | 28 | 1003.4 |
| 20260904193004 | 71 | 159 | 19.0 | 0.0 | 0.00 | 0.00 | 0.00 | 28 | 1003.7 |
| 20260904192520 | 72 | 142 | 20.0 | 0.0 | 0.00 | 0.00 | 0.00 | 28 | 1003.7 |
| 20260904192030 | 72 | 151 | 22.0 | 0.0 | 0.00 | 0.00 | 0.00 | 27 | 1003.6 |
| 20260904191540 | 72 | 158 | 21.0 | 0.0 | 0.00 | 0.00 | 0.00 | 27 | 1003.6 |
| 20260904191041 | 72 | 181 | 20.0 | 0.0 | 0.00 | 0.00 | 0.00 | 26 | 1003.6 |
| 20260904190544 | 71 | 166 | 21.0 | 0.0 | 0.00 | 0.00 | 0.00 | 26 | 1003.6 |
| 20260904190050 | 72 | 168 | 21.0 | 0.0 | 0.00 | 0.00 | 0.00 | 26 | 1003.5 |
| 20260904185553 | 72 | 177 | 21.0 | 0.0 | 0.00 | 0.00 | 0.00 | 26 | 1003.5 |
| 20260904185054 | 72 | 171 | 21.0 | 0.0 | 0.00 | 0.00 | 0.00 | 26 | 1003.4 |
| 20260904184602 | 71 | 150 | 20.0 | 0.0 | 0.00 | 0.00 | 0.00 | 25 | 1003.3 |
| 20260904184018 | 71 | 180 | 21.0 | 0.0 | 0.00 | 0.00 | 0.00 | 26 | 1003.3 |
| 20260904183527 | 71 | 175 | 21.0 | 0.0 | 0.00 | 0.00 | 0.00 | 25 | 1003.4 |
| 20260904183028 | 71 | 213 | 20.0 | 0.0 | 0.00 | 0.00 | 0.00 | 25 | 1003.3 |
| 20260904182538 | 71 | 171 | 21.0 | 0.0 | 0.00 | 0.00 | 0.00 | 25 | 1003.3 |
| 20260904182050 | 71 | 194 | 21.0 | 0.0 | 0.00 | 0.00 | 0.00 | 25 | 1003.3 |
| 20260904181605 | 71 | 143 | 21.0 | 0.0 | 0.00 | 0.00 | 0.00 | 25 | 1003.3 |
| 20260904181103 | 71 | 148 | 22.0 | 0.0 | 0.00 | 0.00 | 0.00 | 25 | 1003.4 |
| 20260904180603 | 71 | 121 | 22.0 | 0.0 | 0.00 | 0.00 | 0.00 | 25 | 1003.2 |
| 20260904180008 | 71 | 180 | 21.0 | 0.0 | 0.00 | 0.00 | 0.00 | 25 | 1003.2 |
| 20260904175515 | 71 | 168 | 21.0 | 0.0 | 0.00 | 0.00 | 0.00 | 25 | 1003.2 |
| 20260904175016 | 71 | 173 | 20.0 | 0.0 | 0.00 | 0.00 | 0.00 | 26 | 1003.1 |
| 20260904174518 | 71 | 149 | 20.0 | 0.0 | 0.00 | 0.00 | 0.00 | 25 | 1003.2 |
| 20260904174030 | 71 | 182 | 19.0 | 0.0 | 0.00 | 0.00 | 0.00 | 26 | 1003.2 |
| 20260904173542 | 71 | 152 | 19.0 | 0.0 | 0.00 | 0.00 | 0.00 | 26 | 1003.2 |
| 20260904173042 | 71 | 173 | 17.0 | 0.0 | 0.00 | 0.00 | 0.00 | 27 | 1003.2 |
| 20260904172552 | 71 | 180 | 16.0 | 0.0 | 0.00 | 0.00 | 0.00 | 27 | 1003.3 |
| 20260904172055 | 71 | 184 | 15.0 | 0.0 | 0.00 | 0.00 | 0.00 | 27 | 1003.5 |
| 20260904171604 | 70 | 176 | 16.0 | 0.0 | 0.00 | 0.00 | 0.00 | 28 | 1003.4 |
| 20260904171100 | 70 | 173 | 16.0 | 0.0 | 0.00 | 0.00 | 0.00 | 27 | 1003.6 |
| 20260904170501 | 70 | 130 | 16.0 | 0.0 | 0.00 | 0.00 | 0.00 | 28 | 1003.6 |
| 20260904170004 | 70 | 190 | 17.0 | 0.0 | 0.00 | 0.00 | 0.00 | 28 | 1003.4 |
| 20260904165610 | 70 | 190 | 17.0 | 0.0 | 0.00 | 0.00 | 0.00 | 27 | 1003.5 |
| 20260904165101 | 70 | 173 | 17.0 | 0.0 | 0.00 | 0.00 | 0.00 | 27 | 1003.5 |
| 20260904164503 | 70 | 138 | 16.0 | 0.0 | 0.00 | 0.00 | 0.00 | 28 | 1003.6 |
| 20260904164023 | 69 | 146 | 17.0 | 0.0 | 0.00 | 0.00 | 0.00 | 28 | 1003.4 |
| 20260904163546 | 69 | 184 | 16.0 | 0.0 | 0.00 | 0.00 | 0.00 | 28 | 1003.2 |
| 20260904163057 | 68 | 125 | 16.0 | 0.0 | 0.00 | 0.00 | 0.00 | 29 | 1003.4 |
| 20260904162511 | 68 | 180 | 16.0 | 0.0 | 0.00 | 0.00 | 0.00 | 29 | 1003.4 |
| 20260904162020 | 68 | 140 | 16.0 | 0.0 | 0.00 | 0.00 | 0.00 | 30 | 1003.3 |
| 20260904161534 | 67 | 147 | 16.0 | 0.0 | 0.00 | 0.00 | 0.00 | 30 | 1003.3 |